www.pogodaiklimat.ru

Погода и климат >> Архив погоды >> Россия >> Курганская область >> Макушино


ПОГОДА в Макушино

  • Прогноз погоды в Макушино
  • Монитор погоды в Макушино

АРХИВ ПОГОДЫ в Макушино

Время (UTC), дата Ветер
(напр.,м/с)
 
Видим.   Явления Облачность Т
(С)
Тd
(С)
f
(%)
Тe
(С)
Тes
(С)
Комфортность P
(гПа)
Po
(гПа)
Тmin
(С)
Tmax
(С)
R
(мм)
R24
(мм)
S
(см)
09 18.05 З 3 20 км 8/6 1000 м
[Cb cap Ci fib]
+10.1 -3.6 38 +9 +13 1003.4 986.7
12 18.05 З 4 20 км 3/3 1000 м
[Cu med, cong]
+13.2 -4.6 29 +12 +15 1002.3 985.8
15 18.05 З 2 20 км 9/9 1000 м
[Cb cap]
+10.1 +1.4 55 +9 +9 1002.1 985.4 +13.3
18 18.05 З 6-11
{11}
50 км 10/10 1000 м
[Cb cap]
+7.7 +3.4 74 +4 +4 1002.4 985.6
21 18.05 Ю 2
{11}
50 км {ливн. осадки} 3/3 1000 м
[Cb cap Ci fib]
+5.5 +3.2 85 +3 +3 1000.3 983.4
00 19.05 Ю 2 20 км {ливн. осадки} 8/8 1000 м
[Cb cap]
+5.7 +3.5 86 +3 +3 999.2 982.3
03 19.05 Ю 2 20 км в посл. час ливневой дождь 9/9 600 м
[Cb cap]
+7.6 +4.2 79 +6 +6 998.5 981.7 +4.8 2
06 19.05 ЮЗ 6 20 км {ливн. осадки} 8/8 600 м
[Cb cap]
+10.3 +1.7 55 +7 +8 997.7 981.2
09 19.05 ЮЗ 5
{12}
4000 м слаб. ливневой дождь 9/9 600 м
[Cb cap]
+9.5 +1.7 58 +7 +7 998.1 981.5
12 19.05 З 7-13
{14}
20 км {ливн. осадки} 9/9 1000 м
[Cb cap]
+7.1 +1.8 69 +3 +3 999.5 982.7
15 19.05 З 7-11
{14}
4000 м слаб. ливневой дождь 10/10 1000 м
[Cb cap]
+5.7 +2.2 78 +1 +1 1000.6 983.7 +11.2 0.3
18 19.05 З 7-11
{12}
4000 м слаб. ливневой дождь 10/10 1000 м
[Cb cap]
+4.3 +1.9 84 -1 -1 1002.1 985.1
21 19.05 З 6
{13}
50 км {ливн. осадки} 10/10 1000 м
[Cb cap]
+4.0 +1.9 86 -2 -2 1003.0 986.0
00 20.05 ЮЗ 3 20 км в посл. час ливневой дождь 8/8 1000 м
[Cb cap]
+3.4 +1.2 85 -1 -1 1004.2 987.1
03 20.05 ЮЗ 3 20 км 3/3 1000 м
[Cb cap Ci sp]
+6.2 +2.2 76 +3 +6 1004.8 987.8 +3.0 2
06 20.05 ЮЗ 4 20 км {ливн. осадки} 8/8 1000 м
[Cb cap]
+10.2 -0.4 48 +8 +13 1004.1 987.4
09 20.05 З 4 20 км {ливн. осадки} 8/8 1000 м
[Cb cap]
+10.9 -4.6 33 +9 +11 1003.1 986.5
12 20.05 З 6
{12}
20 км {ливн. осадки} 5/5 1000 м
[Cb cap]
+10.6 -2.3 40 +8 +9 1003.5 986.8
15 20.05 СЗ 3 20 км 8/5 1000 м
[Cb cap Ci fib]
+7.7 -0.5 56 +5 +5 1003.9 987.1 +11.6
18 20.05 З 3 50 км 8/4 1000 м
[Sc Ci sp]
+3.3 +0.4 81 -1 -1 1004.9 987.8
21 20.05 З 2 50 км 6/6 1000 м
[Sc]
+3.4 +1.1 85 0 0 1004.9 987.8
00 21.05 ЮЗ 2 н/о н/о +2.1 +0.5 89 -1 -1 1005.3 988.1
03 21.05 З 3 20 км 1/0
[Ci fib]
+6.8 +1.9 71 +4 +9 1005.9 989.0 +2.0
06 21.05 З 4 4000 м слаб. ливневой дождь 8/8 1000 м
[Cb cap]
+8.9 +0.7 56 +6 +8 1006.1 989.3
09 21.05 З 6 20 км {ливн. осадки} 9/9 1000 м
[Cb cap]
+9.6 -0.1 51 +6 +7 1006.4 989.7
12 21.05 З 6
{12}
20 км {ливн. осадки} 10/10 600 м
[Cb cap]
+8.4 +0.8 59 +5 +5 1007.5 990.7
15 21.05 СЗ 3 20 км 10/10 600 м
[Cb cap]
+5.8 +2.6 80 +3 +3 1008.6 991.6 +11.1
18 21.05 З 3 50 км {ливн. осадки} 10/10 600 м
[Cb cap]
+4.9 +2.4 84 +1 +1 1009.3 992.2
21 21.05 СЗ 4 50 км 10/10 600 м
[Cb cap]
+4.2 +1.6 83 -0 -0 1009.7 992.6
00 22.05 СЗ 4 4000 м слаб. ливневой дождь 10/10 600 м
[Cb cap]
+3.9 +1.5 84 -1 -1 1010.3 993.1
03 22.05 СЗ 4 20 км {ливн. осадки} 10/10 600 м
[Cb cap]
+4.8 +1.6 80 +1 +1 1011.3 994.2 +3.5
06 22.05 СЗ 4 20 км в посл. час дождь со снегом {ливн. осадки} 10/10 1000 м
[Cb cap]
+6.1 +2.5 78 +2 +2 1012.1 995.0
09 22.05 З 3 20 км 10/10 1000 м
[Cb cap]
+8.0 -0.5 55 +6 +6 1012.2 995.2
12 22.05 З 5 20 км 10/10 1000 м
[Cb cap]
+8.9 -0.9 50 +6 +6 1012.5 995.6
15 22.05 З 2 20 км 9/9 1000 м
[Sc]
+7.6 +0.9 62 +6 +6 1013.4 996.4 +9.7 0.5
18 22.05 ЮЗ 2 50 км 10/10 600 м
[Cb cap]
+6.8 +1.4 68 +5 +5 1014.0 996.9
21 22.05 ЮЗ 3 50 км 10/10 600 м
[Cb cap]
+4.4 +0.6 76 +1 +1 1014.0 996.8
00 23.05 ЮЗ 3 20 км ясно +3.3 +0.4 81 -1 -0 1014.5 997.2
03 23.05 ЮЗ 3 20 км ясно +10.7 +2.0 55 +9 +14 1014.1 997.3 +3.1
06 23.05 ЮЗ 4 20 км 3/3 1000 м
[Cb cap Ci fib]
+15.7 -2.3 29 +15 +22 1012.5 996.0
09 23.05 ЮЗ 6-11
{11}
20 км 8/8 1000 м
[Cb cap]
+17.3 -4.4 22 +17 +18 1011.1 994.7
12 23.05 ЮЗ 5
{11}
20 км 3/3 1000 м
[Cb cap Ci fib]
+18.2 -5.0 20 +18 +20 1009.3 993.0
15 23.05 ЮВ 2 20 км 8/0
[Ci sp]
+15.1 -3.0 29 +15 +15 1006.9 990.5 +18.5
18 23.05 Ю 4 50 км 8/5 1000 м
[Sc Ci sp]
+13.6 -2.8 32 +12 +12 1005.2 988.7
21 23.05 Ю 4 50 км {ливн. осадки} 9/9 1000 м
[Cb cap]
+12.4 +6.1 65 +11 +11 1003.5 987.0
00 24.05 ЮЗ 5 20 км {ливн. осадки} 6/6 1000 м
[Cb cap]
+12.8 +7.5 70 +11 +11 1002.5 986.0
03 24.05 ЮЗ 6-10
{11}
20 км 3/0
[Ac cast Ci fib]
+17.6 +6.4 48 +17 +19 1000.7 984.5 +12.0
06 24.05 ЮЗ 9-14
{15}
20 км 3/0
[Ci sp]
+21.8 +3.0 29 +22 +23 комфорт 999.7 983.7
09 24.05 ЮЗ 12-18
{20}
20 км 6/4 1000 м
[Cu med, cong Ci sp]
+23.9 -2.8 17 +22 +22 комфорт 998.8 983.0
12 24.05 ЮЗ 9-14
{21}
20 км 8/4 1000 м
[Cb cap Ci sp]
+24.3 -3.6 15 +22 +23 комфорт 997.9 982.1
15 24.05 СВ 1
{16}
20 км 10/10 1000 м
[Cb cap]
+16.1 +8.1 59 +17 +17 998.5 982.3 +24.8
18 24.05 С 2 50 км 10/10 1000 м
[Cb cap]
+12.6 +6.6 67 +12 +12 998.6 982.2
21 24.05 СЗ 10-16
{16}
50 км 10/10 1000 м
[]
+6.1 +3.7 85 0 0 1001.7 984.8
00 25.05 С 5-10
{16}
4000 м слаб. крупа 10/10 1000 м
[Cb cap]
+1.4 -0.1 90 -4 -4 1005.1 987.9
03 25.05 С 5-10
{11}
20 км {ливн. осадки} 8/8 1000 м
[Cb cap]
+4.6 +1.3 79 -0 +1 1007.5 990.4 +1.1 4
06 25.05 СЗ 6
{12}
20 км {ливн. осадки} 8/8 1000 м
[Cb cap]
+8.9 -0.9 50 +6 +7 1009.1 992.2

 

Местоположение метеостанции Макушино (Курганская область, Россия): широта 55.25 долгота 67.30 высота над уровнем моря 139 м.

В архиве по умолчанию представлена погода в Макушино за последнюю неделю. Архивные данные за месяц целиком и за предыдущие месяцы, начиная с января 2011 года, Вы можете получить, выбрав интересующий диапазон дат из раскрывающегося списка и нажав кнопку "Ввод!".


*Определитесь, кто Вы:
робот инопланетянин человек

Внимание! Время в таблицах - всемирное. Для получения местного времени необходимо прибавить поправку, которая равна 5 ч.

Смотрите также архив погоды в соседних городах и на ближайших метеорологических станциях:

Погода в Мамлютке (Северо-Казахстанская область, Казахстан) (86 км)
Погода в Бердюжьем (Тюменская область, Россия) (91 км)
Погода в Половинном (Курганская область, Россия) (99 км)
Погода в Благовещенке (Северо-Казахстанская область, Казахстан) (100 км)
Погода в Кургане (Курганская область, Россия) (122 км)
Погода в Петропавловске город (Северо-Казахстанская область, Казахстан) (126 км)
Погода в Петропавловске (Северо-Казахстанская область, Казахстан) (127 км)
Погода в Пресногорьковке (Костанайская область, Казахстан) (130 км)
Погода в Ильинке (Омская область, Россия) (130 км)
Погода в Памятном (Курганская область, Россия) (132 км)

Пояснения к столбцам:

Ветер - указаны скорость ветра в м/с - средняя за 10 мин, порывы в срок и между сроками (в фигурных скобках) и направление, откуда дует ветер: С - северный, СВ - северо-восточный, В - восточный, ЮВ - юго-восточный, Ю - южный, ЮЗ - юго-западный, З - западный, СЗ - северо-западный.
Видимость - горизонтальная дальность видимости в метрах или километрах. При видимости от 1 до 10 км при отсутствии осадков обычно наблюдается дымка, при ухудшении видимости до 1 км и менее - туман. В сухую погоду видимость может ухудшаться дымом, пылью или мглою.
Явления - указаны атмосферные явления, наблюдавшиеся в срок или в последний час перед сроком; фигурными скобками обозначены явления, наблюдавшиеся между сроками (за 1-3 часа до срока); квадратными скобками обозначены град или гололедные отложения с указанием их диаметра в мм.
Облачность - указаны через наклонную черту общая и нижняя облачность в баллах и высота нижней границы облаков в метрах; квадратными скобками обозначены формы облаков: Ci - перистые, Cs - перисто-слоистые, Cc - перисто-кучевые, Ac - высококучевые, As - высокослоистые, Sc - слоисто-кучевые, Ns - слоисто-дождевые, Cu - кучевые, Cb - кучево-дождевые. Подробнее классификацию облаков см. в Атласе облаков (PDF).
T - Температура воздуха - температура, измеренная на высоте 2 м над землей.
Td - Температура точки росы - температура, при понижении до которой содержащийся в воздухе водяной пар достигнет насыщения.
f - Относительная влажность воздуха - влажноcть воздуха, измеренная на высоте 2 м над землей.
Te - Эффективная температура - температура, которую ощущает одетый по сезону человек в тени. Характеристика душности погоды. При расчете учитывается влияние влажности воздуха и скорости ветра на теплоощущения человека.
Tes - Эффективная температура на солнце - температура, которую ощущает человек, с поправкой на солнечный нагрев. Характеристика знойности погоды. Зависит от высоты солнца над горизонтом, облачности и скорости ветра. Ночью, в пасмурную погоду, а также при ветре 12 м/с и более поправка равна нулю.
P - Атмосферное давление - приведенное к уровню моря атмосферное давление.
Po - Атмосферное давление - измеренное на уровне метеостанции атмосферное давление.
Tmin - Минимальная температура - минимум температуры воздуха на высоте 2 м над землей.
Tmax - Максимальная температура - максимум температуры воздуха на высоте 2 м над землей.
R - Количество осадков - Количество выпавших осадков за период времени, мм. При наведении курсора мыши на число - период времени, за который выпало указанное количество осадков.
R24 - Количество осадков - Количество выпавших осадков за 24 часа, мм.
S - Снежный покров - Высота снежного покрова, см. При наведении курсора мыши на число - состояние снежного покрова и степень покрытия местности в баллах.